Location: Newark
(48.6461°N, 4.3644°W)
Time: 20:31:20
(UTC+00:00)

Transit 4A - Pass Details

Date: 29 January 2020
Orbit: 872 x 973 km, 66.8° (Epoch: 22 February)

Event Time Altitude Azimuth Distance (km) Brightness Sun altitude
Rises 04:54:31 0° 175° (S) 3,542 10.9 -29.2°
Reaches altitude 10° 04:57:25 10° 163° (SSE) 2,588 10.3 -28.7°
Maximum altitude 05:02:15 26° 109° (ESE) 1,692 9.8 -27.9°
Drops below altitude 10° 05:07:00 10° 55° (NE) 2,553 10.9 -27.2°
Sets 05:09:51 0° 43° (NE) 3,486 11.5 -26.7°
